OSCAR 30

导读 | 豆包AI

OSCAR 30是美国于1985年8月3日发射的卫星,隶属于奥斯卡(OSCAR)系列,该系列早期服务于多普勒导航定位领域。作为美国海军导航卫星系统的组成部分,它延续了系列技术特点,为大地测量、船舶导航等提供支持,后续随着新一代导航卫星体系部署,逐步退出服役,在卫星导航发展历程中承担了过渡性试验与应用任务。

Basic Information
目录编号:
15935
目录名称:
OSCAR 30
国际标识:
1985-066A
轨道中心:
EARTH
卫星名称:
OSCAR 30
卫星全名:
--
卫星状态:
在轨 (已飞行14880 天)
发射日期:
1985-08-03 UTC
国别 :
美国 (US)
星等 :
--
Orbit Information
数据来源 国际轨道数据 AOE轨道数据
星历时间 2026-04-30T20:33:31+0800
5小时前
查看轨道信息
2026-04-29T11:00:00+0800
1天前
查看轨道信息
半长轴 7501.966km 7501.978km
偏心率 0.0169506 0.0168925
轨道倾角 90.153° 90.152°
近地点辐角 52.557° 56.579°
升交点赤经 102.018° 101.996°
平近点角 67.121° 181.383°
近地点 996.666km 997.113km
远地点 1250.992km 1250.569km
周期 107.776分钟 107.776分钟
每日圈数 13.361038 13.361004
Detailed Information
使用方式:
暂无
2D Orbit Map
3D Orbit Map
Orbit Altitude Analysis Chart
Orbit Inclination Analysis Chart
Orbit Comprehensive Analysis Chart
View Comprehensive Chart